Рублёво

Россия / Московская область     55°47′09″N   37°21′21″E
В апреле 2022 года жителям России запретили посещать сайт meteo.paraplan.net по решению Генеральной прокуратуры. Аудитория сайта уменьшилась в 10 раз. Владельцы сайта не видят смысла в поддержке погодного сервера в таких условиях. Сайт будет закрыт в октябре.
темп.,
°C
ветер,
м/с
пор.,
м/с
влажн.,
%
обл.,
%
осадки,
мм/ч
давл.,
гПа
погр.,
м
3 октября, пн
пн300:00+10всв61586100 1.6 999471
03:00+12в71597100 3.8 996739
06:00+14вюв71594100 3.0 994941
09:00+14вюв81593100 4.4 9921073
12:00+13ю51089100 2.7 993831
15:00+11ю61472100 2.8 9961503
18:00+9ююв71476100 0.3 9991541
21:00+8ююв81582100 0.8 10001503
4 октября, вт
вт400:00+10ююв81674100 0.4 10011661
03:00+10ююв81673100 0.6 10021575
06:00+10ююв81468100 0.1 10031614
09:00+10ююв81574100 0.1 10041509
12:00+8ююз51285100 0.7 10071378
15:00+9ююв61073100 1.2 10071111
18:00+8ю61281100 0.8 10081416
21:00+8ю5987100 2.1 10081236
5 октября, ср
ср500:00+7ююв3987100 0.7 10081163
03:00+7ююз4886100 1.8 1009996
06:00+7юз4785100 0.4 1010802
09:00+7юз3583100 0.5 1011925
12:00+6зюз4580100 0.7 1012794
15:00+6з4779100 0.9 1013793
18:00+6зюз478398 0.2 1014729
21:00+6зюз378989 0.2 1015543
6 октября, чт
чт600:00+5з378881 0.1 1016375
03:00+4зюз25917 0.1 1017170
06:00+4юз2493100 0.0 1017136
09:00+6ю2493100 0.8 1016166
12:00+7ю3795100 0.6 1015314
15:00+9юз3998100 0.6 1014434
18:00+10юз41196100 0.3 1014479
21:00+9зюз5149698 0.3 1013562
7 октября, пт
пт700:00+11з51393100 0.1 1014630
03:00+10зсз5138919 0.1 1015709
06:00+9зсз61184100 0.0 1016828
09:00+9з51075100 0.1 10181073
12:00+10з61379100 0.1 10191154
15:00+12з612689 0.1 10191285
18:00+11з511740 0.0 1020917
21:00+9з412835 0.0 1021593